AFL1530 UUEE-UNTT

Flight info

Callsign AFL1530
Flight time 3h 36m
Altitude 35000
Route OLMUN T629 IPSIL T830 LAMGU N604 OGSIN P983 ULPAS/K0822F370 P983 TINRI T448 RUBOR R244 KZ A300 NN
Aircraft A320/M-SDE3FGHIRWY/LB1

Departure

Time 2026-05-07 17:08
Airport Sheremetyevo International Airport (UUEE)

Arrival

Time 2026-05-07 20:44
Airport Tomsk Kamov Airport (UNTT)
Time Latitude Longitude Altitude Speed Heading
2026-05-07 16:42 55.97881 37.41916 639 ft 0 kts 255°
2026-05-07 17:00 55.97882 37.41924 639 ft 3 kts 255°
2026-05-07 17:00 55.97888 37.41970 639 ft 4 kts 258°
2026-05-07 17:00 55.97895 37.42016 639 ft 4 kts 238°
2026-05-07 17:00 55.97906 37.42035 639 ft 0 kts 165°
2026-05-07 17:03 55.97885 37.42045 639 ft 7 kts 165°
2026-05-07 17:03 55.97835 37.42068 639 ft 11 kts 165°
2026-05-07 17:04 55.97767 37.42099 641 ft 9 kts 166°
2026-05-07 17:04 55.97712 37.42128 641 ft 7 kts 161°
2026-05-07 17:04 55.97688 37.42214 642 ft 11 kts 77°
2026-05-07 17:04 55.97707 37.42331 646 ft 9 kts 76°
2026-05-07 17:05 55.97728 37.42471 641 ft 15 kts 74°
2026-05-07 17:05 55.97753 37.42644 644 ft 14 kts 75°
2026-05-07 17:05 55.97742 37.42785 644 ft 11 kts 144°
2026-05-07 17:05 55.97676 37.42822 638 ft 9 kts 166°
2026-05-07 17:06 55.97623 37.42857 638 ft 6 kts 156°
2026-05-07 17:06 55.97602 37.42816 638 ft 1 kts 254°
2026-05-07 17:07 55.97602 37.42815 638 ft 1 kts 254°
2026-05-07 17:07 55.97561 37.42552 640 ft 57 kts 255°
2026-05-07 17:07 55.97403 37.41485 639 ft 120 kts 255°
2026-05-07 17:08 55.97143 37.39741 672 ft 166 kts 255°
2026-05-07 17:08 55.96842 37.37812 1405 ft 159 kts 255°
2026-05-07 17:08 55.96512 37.35943 2100 ft 155 kts 255°
2026-05-07 17:08 55.96207 37.34095 2641 ft 155 kts 258°
2026-05-07 17:09 55.95918 37.32228 3184 ft 156 kts 258°
2026-05-07 17:09 55.95636 37.30372 3745 ft 155 kts 256°
2026-05-07 17:09 55.95339 37.28443 4076 ft 170 kts 253°
2026-05-07 17:09 55.95029 37.26263 4250 ft 194 kts 260°
2026-05-07 17:10 55.95291 37.23777 4443 ft 223 kts 298°
2026-05-07 17:10 55.96557 37.21913 4704 ft 257 kts 337°
2026-05-07 17:10 55.98416 37.21679 5161 ft 282 kts
2026-05-07 17:10 56.00269 37.22975 5883 ft 293 kts 33°
2026-05-07 17:11 56.01695 37.25614 6605 ft 301 kts 60°
2026-05-07 17:11 56.02335 37.29155 7349 ft 302 kts 89°
2026-05-07 17:11 56.02038 37.32827 8082 ft 299 kts 116°
2026-05-07 17:11 56.00955 37.35949 8822 ft 296 kts 131°
2026-05-07 17:12 55.99702 37.38900 9542 ft 300 kts 131°
2026-05-07 17:12 55.98432 37.41879 10222 ft 306 kts 131°
2026-05-07 17:12 55.97099 37.45002 10535 ft 325 kts 131°
2026-05-07 17:12 55.95720 37.48244 11153 ft 330 kts 130°
2026-05-07 17:13 55.94488 37.51755 11807 ft 338 kts 118°
2026-05-07 17:13 55.93686 37.55738 12475 ft 346 kts 105°
2026-05-07 17:13 55.93230 37.59913 13125 ft 349 kts 102°
2026-05-07 17:13 55.92772 37.64188 13755 ft 353 kts 103°
2026-05-07 17:14 55.92301 37.68502 14380 ft 356 kts 103°
2026-05-07 17:14 55.91915 37.72888 14969 ft 361 kts 95°
2026-05-07 17:14 55.91977 37.77405 15334 ft 374 kts 83°
2026-05-07 17:14 55.92413 37.82083 15469 ft 391 kts 81°
2026-05-07 17:15 55.92885 37.86914 15841 ft 399 kts 81°
2026-05-07 17:15 55.93361 37.91816 16363 ft 403 kts 81°
2026-05-07 17:15 55.93838 37.96767 16883 ft 407 kts 81°
2026-05-07 17:15 55.94314 38.01764 17401 ft 410 kts 81°
2026-05-07 17:16 55.94789 38.06798 17895 ft 413 kts 81°
2026-05-07 17:16 55.95262 38.11877 18384 ft 416 kts 81°
2026-05-07 17:16 55.95734 38.16999 18866 ft 419 kts 81°
2026-05-07 17:16 55.96209 38.22153 19312 ft 423 kts 81°
2026-05-07 17:17 55.96689 38.27350 19774 ft 426 kts 81°
2026-05-07 17:17 55.97170 38.32583 20209 ft 429 kts 81°
2026-05-07 17:17 55.97654 38.37858 20674 ft 431 kts 81°
2026-05-07 17:17 55.98139 38.43161 21102 ft 434 kts 81°
2026-05-07 17:18 55.98625 38.48501 21517 ft 437 kts 81°
2026-05-07 17:18 55.99111 38.53876 21928 ft 440 kts 81°
2026-05-07 17:18 55.99589 38.59211 22344 ft 442 kts 81°
2026-05-07 17:18 56.00068 38.64642 22736 ft 444 kts 81°
2026-05-07 17:19 56.00551 38.70099 23108 ft 447 kts 81°
2026-05-07 17:19 56.01039 38.75609 23435 ft 451 kts 81°
2026-05-07 17:19 56.01527 38.81163 23787 ft 454 kts 81°
2026-05-07 17:19 56.02016 38.86740 24164 ft 455 kts 81°
2026-05-07 17:20 56.02503 38.92344 24516 ft 457 kts 82°
2026-05-07 17:20 56.02987 38.97964 24872 ft 458 kts 81°
2026-05-07 17:20 56.03471 39.03602 25223 ft 460 kts 81°
2026-05-07 17:20 56.03955 39.09260 25571 ft 461 kts 81°
2026-05-07 17:21 56.04437 39.14952 25912 ft 463 kts 81°
2026-05-07 17:21 56.04914 39.20650 26241 ft 464 kts 82°
2026-05-07 17:21 56.05389 39.26370 26573 ft 465 kts 81°
2026-05-07 17:21 56.05867 39.32106 26899 ft 467 kts 81°
2026-05-07 17:22 56.06343 39.37856 27238 ft 468 kts 81°
2026-05-07 17:22 56.06817 39.43637 27527 ft 470 kts 81°
2026-05-07 17:22 56.07345 39.49407 27823 ft 471 kts 77°
2026-05-07 17:22 56.08278 39.55019 28114 ft 471 kts 68°
2026-05-07 17:23 56.09666 39.60320 28379 ft 470 kts 58°
2026-05-07 17:23 56.11407 39.65281 28646 ft 471 kts 55°
2026-05-07 17:23 56.13187 39.70217 28918 ft 472 kts 55°
2026-05-07 17:23 56.14967 39.75167 29176 ft 473 kts 55°
2026-05-07 17:24 56.16749 39.80139 29429 ft 474 kts 55°
2026-05-07 17:24 56.18532 39.85127 29675 ft 476 kts 55°
2026-05-07 17:24 56.20318 39.90137 29921 ft 476 kts 56°
2026-05-07 17:24 56.22071 39.95082 30261 ft 475 kts 56°
2026-05-07 17:25 56.23837 40.00085 30565 ft 474 kts 56°
2026-05-07 17:25 56.25602 40.05091 30855 ft 474 kts 56°
2026-05-07 17:25 56.27368 40.10102 31135 ft 474 kts 55°
2026-05-07 17:25 56.29131 40.15110 31412 ft 474 kts 55°
2026-05-07 17:26 56.30893 40.20121 31660 ft 474 kts 55°
2026-05-07 17:26 56.32652 40.25138 31935 ft 473 kts 55°
2026-05-07 17:26 56.34406 40.30152 32191 ft 474 kts 55°
2026-05-07 17:26 56.36167 40.35183 32436 ft 474 kts 55°
2026-05-07 17:27 56.37924 40.40216 32682 ft 474 kts 55°
2026-05-07 17:27 56.39674 40.45255 32923 ft 474 kts 55°
2026-05-07 17:27 56.41425 40.50315 33164 ft 475 kts 55°
2026-05-07 17:27 56.43174 40.55369 33390 ft 475 kts 55°
2026-05-07 17:28 56.44333 40.58727 33555 ft 475 kts 56°
2026-05-07 17:28 56.45871 40.64025 33793 ft 478 kts 65°
2026-05-07 17:28 56.46980 40.69695 34017 ft 480 kts 73°
2026-05-07 17:28 56.47845 40.75527 34256 ft 480 kts 73°
2026-05-07 17:29 56.48713 40.81350 34508 ft 479 kts 73°
2026-05-07 17:29 56.49587 40.87164 34755 ft 478 kts 73°
2026-05-07 17:29 56.50463 40.92968 34910 ft 478 kts 73°
2026-05-07 17:29 56.51338 40.98783 34947 ft 478 kts 73°
2026-05-07 17:30 56.53064 41.10381 34936 ft 476 kts 74°
2026-05-07 17:30 56.54768 41.21970 34937 ft 476 kts 74°
2026-05-07 17:31 56.56460 41.33558 34933 ft 475 kts 74°
2026-05-07 17:31 56.58132 41.45137 34933 ft 474 kts 74°
2026-05-07 17:32 56.59802 41.56720 34946 ft 474 kts 74°
2026-05-07 17:32 56.61467 41.68286 34942 ft 473 kts 74°
2026-05-07 17:33 56.63112 41.79851 34943 ft 473 kts 75°
2026-05-07 17:33 56.64737 41.91424 34942 ft 472 kts 75°
2026-05-07 17:34 56.66343 42.02916 34938 ft 472 kts 75°
2026-05-07 17:34 56.67953 42.14482 34942 ft 472 kts 75°
2026-05-07 17:35 56.69557 42.26057 34933 ft 472 kts 75°
2026-05-07 17:35 56.71150 42.37638 34924 ft 472 kts 75°
2026-05-07 17:36 56.72720 42.49247 34920 ft 472 kts 76°
2026-05-07 17:36 56.74312 42.60849 34917 ft 472 kts 74°
2026-05-07 17:37 56.76177 42.72288 34934 ft 470 kts 71°
2026-05-07 17:37 56.78133 42.83630 34925 ft 469 kts 72°
2026-05-07 17:38 56.80017 42.95013 34917 ft 469 kts 73°
2026-05-07 17:38 56.81835 43.06430 34912 ft 469 kts 73°
2026-05-07 17:39 56.83638 43.17868 34911 ft 469 kts 73°
2026-05-07 17:39 56.85450 43.29315 34907 ft 469 kts 73°
2026-05-07 17:40 56.87255 43.40771 34902 ft 469 kts 73°
2026-05-07 17:40 56.89049 43.52225 34895 ft 469 kts 73°
2026-05-07 17:41 56.90828 43.63710 34896 ft 469 kts 73°
2026-05-07 17:41 56.92598 43.75209 34896 ft 469 kts 73°
2026-05-07 17:42 56.94358 43.86708 34892 ft 469 kts 73°
2026-05-07 17:42 56.96092 43.98145 34891 ft 469 kts 73°
2026-05-07 17:43 56.97833 44.09680 34887 ft 470 kts 73°
2026-05-07 17:43 56.99572 44.21249 34885 ft 471 kts 74°
2026-05-07 17:44 57.01297 44.32845 34887 ft 471 kts 74°
2026-05-07 17:44 57.03006 44.44454 34889 ft 472 kts 74°
2026-05-07 17:45 57.04712 44.56096 34893 ft 473 kts 74°
2026-05-07 17:45 57.06413 44.67769 34900 ft 474 kts 74°
2026-05-07 17:46 57.08104 44.79474 34903 ft 474 kts 74°
2026-05-07 17:46 57.09787 44.91191 34905 ft 474 kts 75°
2026-05-07 17:47 57.11460 45.02928 34906 ft 475 kts 75°
2026-05-07 17:47 57.13121 45.14692 34910 ft 475 kts 75°
2026-05-07 17:48 57.14770 45.26474 34913 ft 476 kts 75°
2026-05-07 17:48 57.16416 45.38299 34915 ft 477 kts 75°
2026-05-07 17:49 57.18046 45.50070 34917 ft 478 kts 75°
2026-05-07 17:49 57.19677 45.61955 34922 ft 479 kts 75°
2026-05-07 17:50 57.21294 45.73871 34925 ft 479 kts 75°
2026-05-07 17:50 57.22905 45.85828 34931 ft 481 kts 75°
2026-05-07 17:51 57.24509 45.97816 34934 ft 482 kts 75°
2026-05-07 17:51 57.26102 46.09819 34941 ft 481 kts 75°
2026-05-07 17:52 57.27683 46.21839 34943 ft 482 kts 75°
2026-05-07 17:52 57.29259 46.33859 34943 ft 481 kts 76°
2026-05-07 17:53 57.30823 46.45892 34949 ft 481 kts 76°
2026-05-07 17:53 57.32367 46.57936 34951 ft 481 kts 76°
2026-05-07 17:54 57.33893 46.69978 34960 ft 481 kts 76°
2026-05-07 17:54 57.35909 46.81719 34967 ft 478 kts 63°
2026-05-07 17:55 57.38666 46.92909 34967 ft 477 kts 64°
2026-05-07 17:55 57.41371 47.04055 34964 ft 477 kts 64°
2026-05-07 17:56 57.44070 47.15289 34959 ft 476 kts 64°
2026-05-07 17:56 57.46762 47.26526 34953 ft 476 kts 64°
2026-05-07 17:57 57.49014 47.35949 34951 ft 476 kts 64°
2026-05-07 17:57 57.52141 47.49034 34955 ft 477 kts 64°
2026-05-07 17:58 57.54823 47.60324 34961 ft 477 kts 64°
2026-05-07 17:58 57.57494 47.71649 34961 ft 478 kts 64°
2026-05-07 17:59 57.60161 47.82995 34963 ft 478 kts 64°
2026-05-07 17:59 57.62814 47.94382 34965 ft 479 kts 65°
2026-05-07 18:00 57.65460 48.05805 34966 ft 479 kts 65°
2026-05-07 18:00 57.68100 48.17238 34971 ft 479 kts 65°
2026-05-07 18:01 57.70739 48.28686 34976 ft 480 kts 65°
2026-05-07 18:01 57.73364 48.40163 34982 ft 480 kts 65°
2026-05-07 18:02 57.75302 48.52117 34985 ft 482 kts 82°
2026-05-07 18:02 57.75744 48.58325 35003 ft 482 kts 82°
2026-05-07 18:03 57.76621 48.70752 34994 ft 481 kts 82°
2026-05-07 18:03 57.77503 48.83167 34995 ft 480 kts 82°
2026-05-07 18:04 57.78377 48.95555 34999 ft 479 kts 82°
2026-05-07 18:04 57.79222 49.07931 34996 ft 479 kts 83°
2026-05-07 18:05 57.80045 49.20227 34993 ft 478 kts 83°
2026-05-07 18:05 57.80867 49.32610 34995 ft 478 kts 83°
2026-05-07 18:06 57.81678 49.45004 34984 ft 479 kts 83°
2026-05-07 18:06 57.82474 49.57399 34977 ft 479 kts 83°
2026-05-07 18:07 57.83264 49.69819 34974 ft 480 kts 83°
2026-05-07 18:07 57.84042 49.82255 34969 ft 480 kts 83°
2026-05-07 18:08 57.84802 49.94719 34969 ft 481 kts 83°
2026-05-07 18:08 57.85552 50.07200 34972 ft 482 kts 83°
2026-05-07 18:09 57.86309 50.19708 34974 ft 482 kts 83°
2026-05-07 18:09 57.87055 50.32244 34966 ft 484 kts 83°
2026-05-07 18:10 57.87780 50.44849 34969 ft 486 kts 83°
2026-05-07 18:10 57.88501 50.57507 34974 ft 487 kts 83°
2026-05-07 18:11 57.89211 50.70174 34984 ft 487 kts 83°
2026-05-07 18:11 57.89897 50.82751 35005 ft 486 kts 83°
2026-05-07 18:12 57.90577 50.95386 35011 ft 485 kts 83°
2026-05-07 18:12 57.91245 51.08008 35019 ft 485 kts 83°
2026-05-07 18:13 57.91902 51.20616 35023 ft 484 kts 83°
2026-05-07 18:13 57.92543 51.33218 35024 ft 484 kts 84°
2026-05-07 18:14 57.93165 51.45827 35022 ft 484 kts 84°
2026-05-07 18:14 57.93782 51.58426 35016 ft 483 kts 84°
2026-05-07 18:15 57.94399 51.71027 35006 ft 484 kts 84°
2026-05-07 18:15 57.95005 51.83640 35000 ft 484 kts 84°
2026-05-07 18:16 57.95596 51.96268 34998 ft 484 kts 84°
2026-05-07 18:16 57.96169 52.08909 34995 ft 485 kts 84°
2026-05-07 18:17 57.96731 52.21567 34995 ft 485 kts 84°
2026-05-07 18:17 57.97288 52.34141 35000 ft 485 kts 84°
2026-05-07 18:18 57.97835 52.46796 35009 ft 484 kts 84°
2026-05-07 18:18 57.98358 52.59450 35017 ft 484 kts 85°
2026-05-07 18:19 57.98864 52.72082 35024 ft 483 kts 85°
2026-05-07 18:19 57.99282 52.82562 35024 ft 482 kts 85°
2026-05-07 18:20 57.99770 52.95162 35028 ft 482 kts 85°
2026-05-07 18:20 58.00245 53.07746 35023 ft 481 kts 85°
2026-05-07 18:21 58.00710 53.20353 34998 ft 483 kts 86°
2026-05-07 18:21 58.01156 53.33009 34993 ft 484 kts 86°
2026-05-07 18:22 58.01593 53.45671 34993 ft 484 kts 86°
2026-05-07 18:22 58.02032 53.58335 35006 ft 484 kts 86°
2026-05-07 18:23 58.02454 53.70984 35015 ft 483 kts 87°
2026-05-07 18:23 58.02852 53.83615 35028 ft 482 kts 87°
2026-05-07 18:24 58.03233 53.96224 35035 ft 481 kts 87°
2026-05-07 18:24 58.03610 54.08802 35034 ft 480 kts 87°
2026-05-07 18:25 58.03987 54.21355 35029 ft 479 kts 87°
2026-05-07 18:25 58.04343 54.33899 35022 ft 479 kts 87°
2026-05-07 18:26 58.04690 54.46382 35017 ft 480 kts 88°
2026-05-07 18:26 58.05023 54.58961 35008 ft 480 kts 88°
2026-05-07 18:27 58.05336 54.71557 35006 ft 481 kts 88°
2026-05-07 18:27 58.05108 54.84132 35005 ft 479 kts 99°
2026-05-07 18:28 58.04220 54.96617 35013 ft 480 kts 99°
2026-05-07 18:28 58.03331 55.09115 35001 ft 481 kts 99°
2026-05-07 18:29 58.02426 55.21615 35002 ft 481 kts 99°
2026-05-07 18:29 58.01509 55.34119 35006 ft 481 kts 100°
2026-05-07 18:30 58.00591 55.46614 35010 ft 481 kts 100°
2026-05-07 18:30 57.99669 55.59097 35015 ft 480 kts 100°
2026-05-07 18:31 57.98736 55.71536 35031 ft 479 kts 100°
2026-05-07 18:31 57.97782 55.83947 35030 ft 478 kts 100°
2026-05-07 18:32 57.96824 55.96258 35021 ft 478 kts 100°
2026-05-07 18:32 57.95863 56.08638 35017 ft 478 kts 100°
2026-05-07 18:33 57.94895 56.21022 35016 ft 478 kts 101°
2026-05-07 18:33 57.93903 56.33403 35021 ft 478 kts 101°
2026-05-07 18:34 57.92896 56.45772 35031 ft 478 kts 101°
2026-05-07 18:34 57.91882 56.58122 35038 ft 477 kts 101°
2026-05-07 18:35 57.90859 56.70440 35041 ft 476 kts 101°
2026-05-07 18:35 57.89824 56.82729 35042 ft 475 kts 101°
2026-05-07 18:36 57.88780 56.94989 35044 ft 475 kts 101°
2026-05-07 18:36 57.87727 57.07223 35045 ft 474 kts 101°
2026-05-07 18:37 57.86667 57.19440 35042 ft 473 kts 101°
2026-05-07 18:37 57.85597 57.31642 35037 ft 473 kts 102°
2026-05-07 18:38 57.84508 57.43838 35024 ft 473 kts 102°
2026-05-07 18:38 57.83407 57.56009 35007 ft 473 kts 102°
2026-05-07 18:39 57.82295 57.68189 35002 ft 474 kts 102°
2026-05-07 18:39 57.81170 57.80388 34999 ft 475 kts 102°
2026-05-07 18:40 57.80029 57.92598 34995 ft 476 kts 102°
2026-05-07 18:40 57.78878 58.04816 34995 ft 477 kts 102°
2026-05-07 18:41 57.77721 58.17055 34992 ft 477 kts 102°
2026-05-07 18:41 57.76554 58.29293 34997 ft 477 kts 103°
2026-05-07 18:42 57.75372 58.41514 35007 ft 477 kts 102°
2026-05-07 18:42 57.74192 58.53707 35012 ft 476 kts 102°
2026-05-07 18:43 57.73003 58.65869 35016 ft 474 kts 103°
2026-05-07 18:43 57.71803 58.77988 35015 ft 473 kts 103°
2026-05-07 18:44 57.70597 58.90054 35018 ft 471 kts 103°
2026-05-07 18:44 57.69383 59.02075 35012 ft 470 kts 103°
2026-05-07 18:45 57.68158 59.13985 35014 ft 469 kts 103°
2026-05-07 18:45 57.66930 59.25949 35017 ft 469 kts 103°
2026-05-07 18:46 57.65685 59.37892 35001 ft 468 kts 103°
2026-05-07 18:46 57.64430 59.49825 34995 ft 469 kts 103°
2026-05-07 18:47 57.63170 59.61758 34996 ft 468 kts 103°
2026-05-07 18:47 57.61897 59.73682 34986 ft 469 kts 104°
2026-05-07 18:48 57.60600 59.85605 34984 ft 469 kts 104°
2026-05-07 18:48 57.59293 59.97523 34979 ft 469 kts 104°
2026-05-07 18:49 57.57980 60.09447 34978 ft 470 kts 104°
2026-05-07 18:49 57.56660 60.21372 34977 ft 470 kts 104°
2026-05-07 18:50 57.55324 60.33271 34981 ft 469 kts 104°
2026-05-07 18:50 57.53979 60.45159 34982 ft 469 kts 104°
2026-05-07 18:51 57.52618 60.57018 34986 ft 468 kts 104°
2026-05-07 18:51 57.51961 60.69088 34984 ft 470 kts 95°
2026-05-07 18:52 57.51623 60.81240 34983 ft 470 kts 95°
2026-05-07 18:52 57.51264 60.93390 34982 ft 470 kts 95°
2026-05-07 18:53 57.50887 61.05537 34975 ft 470 kts 95°
2026-05-07 18:53 57.50497 61.17675 34969 ft 470 kts 95°
2026-05-07 18:54 57.50094 61.29816 34965 ft 471 kts 96°
2026-05-07 18:54 57.49685 61.41968 34960 ft 471 kts 96°
2026-05-07 18:55 57.49263 61.54149 34957 ft 472 kts 96°
2026-05-07 18:55 57.48825 61.66344 34957 ft 473 kts 96°
2026-05-07 18:56 57.48379 61.78555 34961 ft 474 kts 96°
2026-05-07 18:56 57.47924 61.90712 34962 ft 475 kts 96°
2026-05-07 18:57 57.47455 62.02975 34965 ft 476 kts 96°
2026-05-07 18:57 57.46978 62.15247 34964 ft 476 kts 97°
2026-05-07 18:58 57.46483 62.27522 34966 ft 477 kts 96°
2026-05-07 18:58 57.45988 62.39799 34972 ft 477 kts 96°
2026-05-07 18:59 57.45484 62.52073 34978 ft 476 kts 96°
2026-05-07 18:59 57.44973 62.64335 34983 ft 476 kts 97°
2026-05-07 19:00 57.44445 62.76571 34987 ft 475 kts 97°
2026-05-07 19:00 57.43902 62.88796 34986 ft 475 kts 97°
2026-05-07 19:01 57.43352 63.00997 34986 ft 474 kts 97°
2026-05-07 19:01 57.42801 63.13196 34984 ft 474 kts 97°
2026-05-07 19:02 57.42226 63.25378 34981 ft 474 kts 97°
2026-05-07 19:02 57.41637 63.37559 34979 ft 474 kts 97°
2026-05-07 19:03 57.41033 63.49732 34976 ft 474 kts 97°
2026-05-07 19:03 57.40425 63.61895 34970 ft 474 kts 97°
2026-05-07 19:04 57.39789 63.74053 34965 ft 474 kts 100°
2026-05-07 19:04 57.38311 63.85887 34965 ft 471 kts 107°
2026-05-07 19:05 57.36928 63.95651 34964 ft 471 kts 107°
2026-05-07 19:05 57.34988 64.09371 34962 ft 471 kts 107°
2026-05-07 19:06 57.33313 64.21110 34966 ft 471 kts 107°
2026-05-07 19:06 57.30781 64.38588 34968 ft 471 kts 108°
2026-05-07 19:07 57.29066 64.50266 34972 ft 470 kts 108°
2026-05-07 19:07 57.27630 64.60032 34977 ft 470 kts 108°
2026-05-07 19:08 57.25630 64.73544 34979 ft 469 kts 108°
2026-05-07 19:08 57.24182 64.83264 34981 ft 469 kts 108°
2026-05-07 19:09 57.22461 64.94774 34994 ft 468 kts 108°
2026-05-07 19:09 57.20719 65.06326 35006 ft 467 kts 108°
2026-05-07 19:10 57.18967 65.17846 35011 ft 466 kts 108°
2026-05-07 19:10 57.17207 65.29341 35012 ft 466 kts 106°
2026-05-07 19:11 57.16260 65.41158 35009 ft 467 kts 98°
2026-05-07 19:11 57.15516 65.53026 35010 ft 466 kts 98°
2026-05-07 19:12 57.14753 65.64875 35005 ft 466 kts 98°
2026-05-07 19:12 57.13978 65.76710 35004 ft 465 kts 98°
2026-05-07 19:13 57.13188 65.88535 35003 ft 465 kts 98°
2026-05-07 19:13 57.12390 66.00345 35003 ft 465 kts 99°
2026-05-07 19:14 57.11577 66.12149 35003 ft 465 kts 98°
2026-05-07 19:14 57.10764 66.23962 35008 ft 465 kts 98°
2026-05-07 19:15 57.09940 66.35764 35008 ft 465 kts 99°
2026-05-07 19:15 57.09102 66.47466 35008 ft 465 kts 99°
2026-05-07 19:16 57.08253 66.59237 35006 ft 464 kts 99°
2026-05-07 19:16 57.07397 66.70978 35011 ft 463 kts 99°
2026-05-07 19:17 57.06533 66.82714 34997 ft 463 kts 99°
2026-05-07 19:17 57.05645 66.94444 34993 ft 464 kts 99°
2026-05-07 19:18 57.04661 67.06162 34995 ft 464 kts 100°
2026-05-07 19:18 57.03626 67.17848 34984 ft 464 kts 100°
2026-05-07 19:19 57.02597 67.29537 34984 ft 464 kts 100°
2026-05-07 19:19 57.01576 67.41222 34980 ft 464 kts 100°
2026-05-07 19:20 57.00539 67.52905 34976 ft 464 kts 100°
2026-05-07 19:20 56.99489 67.64605 34977 ft 465 kts 100°
2026-05-07 19:21 56.98430 67.76295 34973 ft 464 kts 100°
2026-05-07 19:21 56.97355 67.87970 34968 ft 464 kts 101°
2026-05-07 19:22 56.96261 67.99642 34966 ft 465 kts 101°
2026-05-07 19:22 56.95174 68.11237 34966 ft 466 kts 100°
2026-05-07 19:23 56.94068 68.22926 34965 ft 466 kts 100°
2026-05-07 19:23 56.92952 68.34609 34965 ft 466 kts 101°
2026-05-07 19:24 56.91810 68.46293 34966 ft 466 kts 101°
2026-05-07 19:24 56.90669 68.57968 34964 ft 466 kts 101°
2026-05-07 19:25 56.89524 68.69644 34965 ft 466 kts 101°
2026-05-07 19:25 56.88358 68.81305 34961 ft 466 kts 101°
2026-05-07 19:26 56.87181 68.92967 34961 ft 467 kts 101°
2026-05-07 19:26 56.85991 69.04640 34962 ft 467 kts 101°
2026-05-07 19:27 56.84793 69.16310 34962 ft 467 kts 101°
2026-05-07 19:27 56.83580 69.27975 34963 ft 467 kts 101°
2026-05-07 19:28 56.82357 69.39630 34961 ft 467 kts 102°
2026-05-07 19:28 56.81119 69.51275 34962 ft 467 kts 102°
2026-05-07 19:29 56.79887 69.62843 34960 ft 467 kts 102°
2026-05-07 19:29 56.78637 69.74467 34957 ft 467 kts 102°
2026-05-07 19:30 56.77368 69.86084 34957 ft 467 kts 102°
2026-05-07 19:30 56.76092 69.97695 34959 ft 467 kts 102°
2026-05-07 19:31 56.74808 70.09296 34954 ft 467 kts 102°
2026-05-07 19:31 56.73537 70.20896 34950 ft 467 kts 98°
2026-05-07 19:32 56.73192 70.32709 34946 ft 467 kts 92°
2026-05-07 19:32 56.73000 70.44543 34943 ft 468 kts 92°
2026-05-07 19:33 56.72787 70.56383 34942 ft 468 kts 92°
2026-05-07 19:33 56.72552 70.68235 34937 ft 469 kts 92°
2026-05-07 19:34 56.72306 70.80108 34937 ft 469 kts 92°
2026-05-07 19:34 56.72063 70.91990 34938 ft 470 kts 92°
2026-05-07 19:35 56.71800 71.03884 34934 ft 470 kts 92°
2026-05-07 19:35 56.71529 71.15710 34937 ft 471 kts 93°
2026-05-07 19:36 56.71239 71.27619 34936 ft 471 kts 93°
2026-05-07 19:36 56.70952 71.39529 34937 ft 471 kts 93°
2026-05-07 19:37 56.70644 71.51447 34939 ft 471 kts 93°
2026-05-07 19:37 56.70324 71.63371 34948 ft 472 kts 94°
2026-05-07 19:38 56.69991 71.75302 34942 ft 472 kts 94°
2026-05-07 19:38 56.69651 71.87236 34942 ft 472 kts 94°
2026-05-07 19:39 56.69301 71.99165 34944 ft 472 kts 94°
2026-05-07 19:39 56.68935 72.11086 34943 ft 472 kts 94°
2026-05-07 19:40 56.68562 72.23014 34940 ft 472 kts 94°
2026-05-07 19:40 56.68176 72.34944 34940 ft 473 kts 94°
2026-05-07 19:41 56.67775 72.46878 34944 ft 473 kts 94°
2026-05-07 19:41 56.67358 72.58818 34940 ft 473 kts 95°
2026-05-07 19:42 56.66931 72.70766 34939 ft 473 kts 95°
2026-05-07 19:42 56.66492 72.82712 34938 ft 474 kts 95°
2026-05-07 19:43 56.66050 72.94666 34937 ft 474 kts 95°
2026-05-07 19:43 56.65599 73.06554 34931 ft 475 kts 95°
2026-05-07 19:44 56.65127 73.18525 34938 ft 475 kts 95°
2026-05-07 19:44 56.64641 73.30496 34942 ft 475 kts 95°
2026-05-07 19:45 56.64148 73.42471 34945 ft 475 kts 95°
2026-05-07 19:45 56.63646 73.54448 34947 ft 475 kts 95°
2026-05-07 19:46 56.63130 73.66420 34953 ft 476 kts 96°
2026-05-07 19:46 56.62604 73.78396 34950 ft 476 kts 96°
2026-05-07 19:47 56.62065 73.90369 34949 ft 476 kts 96°
2026-05-07 19:47 56.61509 74.02339 34947 ft 476 kts 96°
2026-05-07 19:48 56.60941 74.14311 34945 ft 476 kts 96°
2026-05-07 19:48 56.60364 74.26289 34949 ft 477 kts 96°
2026-05-07 19:49 56.59776 74.38278 34953 ft 477 kts 96°
2026-05-07 19:49 56.59175 74.50274 34958 ft 477 kts 96°
2026-05-07 19:50 56.58562 74.62271 34955 ft 478 kts 96°
2026-05-07 19:50 56.57932 74.74282 34956 ft 478 kts 96°
2026-05-07 19:51 56.57303 74.86295 34958 ft 479 kts 96°
2026-05-07 19:51 56.56658 74.98242 34956 ft 479 kts 96°
2026-05-07 19:52 56.55997 75.10277 34958 ft 480 kts 96°
2026-05-07 19:52 56.55324 75.22312 34957 ft 480 kts 96°
2026-05-07 19:53 56.54629 75.34346 34958 ft 480 kts 96°
2026-05-07 19:53 56.53933 75.46384 34958 ft 481 kts 96°
2026-05-07 19:54 56.53229 75.58437 34955 ft 481 kts 96°
2026-05-07 19:54 56.52514 75.70500 34958 ft 482 kts 96°
2026-05-07 19:55 56.51779 75.82572 34955 ft 482 kts 96°
2026-05-07 19:55 56.51022 75.94638 34960 ft 482 kts 96°
2026-05-07 19:56 56.50265 76.06701 34961 ft 482 kts 96°
2026-05-07 19:56 56.49501 76.18769 34963 ft 483 kts 96°
2026-05-07 19:57 56.48721 76.30835 34965 ft 483 kts 96°
2026-05-07 19:57 56.47928 76.42893 34962 ft 483 kts 96°
2026-05-07 19:58 56.47114 76.54947 34961 ft 483 kts 96°
2026-05-07 19:58 56.46436 76.64967 34963 ft 483 kts 96°
2026-05-07 19:59 56.45612 76.77028 34964 ft 484 kts 97°
2026-05-07 19:59 56.44770 76.89089 34967 ft 483 kts 97°
2026-05-07 20:00 56.43918 77.01139 34973 ft 483 kts 97°
2026-05-07 20:00 56.43047 77.13171 34975 ft 483 kts 97°
2026-05-07 20:01 56.42169 77.25194 34974 ft 483 kts 97°
2026-05-07 20:01 56.41290 77.37213 34973 ft 482 kts 97°
2026-05-07 20:02 56.40390 77.49216 34973 ft 483 kts 98°
2026-05-07 20:02 56.39491 77.61227 34974 ft 483 kts 97°
2026-05-07 20:03 56.38625 77.73232 34979 ft 482 kts 97°
2026-05-07 20:03 56.37748 77.85233 34979 ft 482 kts 97°
2026-05-07 20:04 56.36838 77.97212 34977 ft 482 kts 98°
2026-05-07 20:04 56.35915 78.09178 34975 ft 482 kts 98°
2026-05-07 20:05 56.34983 78.21138 34973 ft 481 kts 98°
2026-05-07 20:05 56.34043 78.33089 34973 ft 482 kts 97°
2026-05-07 20:06 56.33854 78.45140 34971 ft 481 kts 89°
2026-05-07 20:06 56.33869 78.57202 34967 ft 481 kts 89°
2026-05-07 20:07 56.33859 78.69267 34966 ft 481 kts 89°
2026-05-07 20:07 56.33842 78.81316 34961 ft 481 kts 89°
2026-05-07 20:08 56.33813 78.93373 34960 ft 481 kts 89°
2026-05-07 20:08 56.33767 79.05361 34963 ft 482 kts 89°
2026-05-07 20:09 56.33720 79.17465 34965 ft 483 kts 89°
2026-05-07 20:10 56.33626 79.35642 34961 ft 484 kts 90°
2026-05-07 20:10 56.33544 79.47776 34958 ft 484 kts 90°
2026-05-07 20:11 56.33451 79.59920 34955 ft 485 kts 90°
2026-05-07 20:11 56.33344 79.72086 34956 ft 486 kts 90°
2026-05-07 20:12 56.33218 79.84274 34958 ft 487 kts 90°
2026-05-07 20:12 56.33090 79.96465 34961 ft 486 kts 90°
2026-05-07 20:13 56.32956 80.08648 34963 ft 486 kts 90°
2026-05-07 20:13 56.32801 80.20838 34963 ft 487 kts 90°
2026-05-07 20:14 56.32640 80.33023 34966 ft 486 kts 90°
2026-05-07 20:14 56.32467 80.45209 34968 ft 486 kts 91°
2026-05-07 20:15 56.32280 80.57302 34968 ft 486 kts 91°
2026-05-07 20:15 56.32076 80.69464 34967 ft 486 kts 91°
2026-05-07 20:16 56.31890 80.81622 34969 ft 485 kts 90°
2026-05-07 20:16 56.31756 80.93767 34969 ft 485 kts 90°
2026-05-07 20:17 56.31611 81.05915 34975 ft 485 kts 91°
2026-05-07 20:17 56.31433 81.18052 34972 ft 485 kts 91°
2026-05-07 20:18 56.31245 81.30191 34971 ft 485 kts 91°
2026-05-07 20:18 56.31040 81.42326 34970 ft 484 kts 92°
2026-05-07 20:19 56.30819 81.54445 34967 ft 484 kts 92°
2026-05-07 20:19 56.30589 81.66576 34966 ft 485 kts 92°
2026-05-07 20:20 56.30351 81.78706 34964 ft 485 kts 92°
2026-05-07 20:20 56.30098 81.90845 34962 ft 485 kts 92°
2026-05-07 20:21 56.29821 82.03000 34959 ft 486 kts 92°
2026-05-07 20:21 56.29533 82.15067 34949 ft 487 kts 93°
2026-05-07 20:22 56.29234 82.27274 34940 ft 490 kts 93°
2026-05-07 20:22 56.29082 82.33403 34403 ft 493 kts 93°
2026-05-07 20:22 56.28921 82.39647 33317 ft 503 kts 93°
2026-05-07 20:22 56.28754 82.45928 32619 ft 502 kts 94°
2026-05-07 20:23 56.28583 82.52182 32014 ft 498 kts 94°
2026-05-07 20:23 56.28408 82.58383 31450 ft 494 kts 94°
2026-05-07 20:23 56.28236 82.64534 30907 ft 489 kts 93°
2026-05-07 20:23 56.28063 82.70613 30349 ft 484 kts 94°
2026-05-07 20:24 56.27891 82.76639 29809 ft 480 kts 93°
2026-05-07 20:24 56.27719 82.82605 29287 ft 475 kts 93°
2026-05-07 20:24 56.27546 82.88516 28757 ft 471 kts 93°
2026-05-07 20:24 56.27370 82.94369 28233 ft 467 kts 94°
2026-05-07 20:25 56.27193 83.00175 27713 ft 462 kts 94°
2026-05-07 20:25 56.27015 83.05918 27182 ft 458 kts 94°
2026-05-07 20:25 56.26834 83.11613 26641 ft 454 kts 94°
2026-05-07 20:25 56.26650 83.17256 26114 ft 449 kts 94°
2026-05-07 20:26 56.26465 83.22842 25576 ft 446 kts 94°
2026-05-07 20:26 56.26278 83.28382 25038 ft 442 kts 94°
2026-05-07 20:26 56.26090 83.33874 24493 ft 438 kts 94°
2026-05-07 20:26 56.25901 83.39327 23952 ft 435 kts 94°
2026-05-07 20:27 56.25711 83.44723 23416 ft 431 kts 94°
2026-05-07 20:27 56.25518 83.50087 22900 ft 428 kts 94°
2026-05-07 20:27 56.25327 83.55403 22393 ft 424 kts 94°
2026-05-07 20:27 56.25135 83.60679 21902 ft 421 kts 94°
2026-05-07 20:28 56.24941 83.65901 21412 ft 418 kts 94°
2026-05-07 20:28 56.24746 83.71029 20933 ft 415 kts 95°
2026-05-07 20:28 56.24546 83.76185 20471 ft 411 kts 95°
2026-05-07 20:28 56.24350 83.81287 20007 ft 408 kts 95°
2026-05-07 20:29 56.24155 83.86363 19541 ft 405 kts 95°
2026-05-07 20:29 56.23962 83.91389 19093 ft 402 kts 95°
2026-05-07 20:29 56.23803 83.96382 18639 ft 399 kts 90°
2026-05-07 20:29 56.24102 84.01314 18211 ft 396 kts 77°
2026-05-07 20:30 56.24845 84.06063 17753 ft 393 kts 73°
2026-05-07 20:30 56.25613 84.10768 17303 ft 391 kts 73°
2026-05-07 20:30 56.26375 84.15444 16870 ft 388 kts 73°
2026-05-07 20:30 56.27131 84.20087 16431 ft 386 kts 74°
2026-05-07 20:31 56.27876 84.24708 16003 ft 383 kts 74°
2026-05-07 20:31 56.28614 84.29298 15586 ft 380 kts 74°
2026-05-07 20:31 56.29346 84.33842 15149 ft 377 kts 74°
2026-05-07 20:31 56.30073 84.38372 14712 ft 375 kts 74°
2026-05-07 20:32 56.30792 84.42871 14277 ft 373 kts 74°
2026-05-07 20:32 56.31502 84.47341 13854 ft 368 kts 75°
2026-05-07 20:32 56.32205 84.51766 13379 ft 368 kts 74°
2026-05-07 20:32 56.32908 84.56181 12935 ft 365 kts 75°
2026-05-07 20:33 56.33606 84.60573 12515 ft 363 kts 75°
2026-05-07 20:33 56.34297 84.64935 12095 ft 361 kts 75°
2026-05-07 20:33 56.34971 84.69235 11905 ft 350 kts 75°
2026-05-07 20:33 56.35622 84.73399 11773 ft 340 kts 75°
2026-05-07 20:34 56.36254 84.77449 11607 ft 331 kts 75°
2026-05-07 20:34 56.36863 84.81373 11304 ft 328 kts 75°
2026-05-07 20:34 56.37477 84.85323 10954 ft 326 kts 75°
2026-05-07 20:34 56.38269 84.89132 10588 ft 323 kts 60°
2026-05-07 20:35 56.39579 84.92382 10230 ft 318 kts 43°
2026-05-07 20:35 56.41209 84.95080 9849 ft 317 kts 39°
2026-05-07 20:35 56.42847 84.97733 9490 ft 315 kts 39°
2026-05-07 20:35 56.44465 85.00359 9120 ft 312 kts 39°
2026-05-07 20:36 56.46070 85.02971 8518 ft 309 kts 39°
2026-05-07 20:36 56.47661 85.05564 7884 ft 307 kts 39°
2026-05-07 20:36 56.49232 85.08138 7265 ft 303 kts 39°
2026-05-07 20:36 56.50778 85.10679 6639 ft 298 kts 39°
2026-05-07 20:37 56.52309 85.13200 5989 ft 296 kts 40°
2026-05-07 20:37 56.53821 85.15688 5346 ft 292 kts 39°
2026-05-07 20:37 56.55312 85.18135 4938 ft 281 kts 40°
2026-05-07 20:37 56.56700 85.20437 4692 ft 265 kts 43°
2026-05-07 20:38 56.57659 85.23230 4233 ft 261 kts 76°
2026-05-07 20:38 56.57690 85.26386 3948 ft 243 kts 109°
2026-05-07 20:38 56.56999 85.28981 3797 ft 220 kts 129°
2026-05-07 20:38 56.56165 85.31290 3361 ft 218 kts 129°
2026-05-07 20:39 56.55329 85.33588 2837 ft 217 kts 129°
2026-05-07 20:39 56.54525 85.35791 2618 ft 200 kts 129°
2026-05-07 20:39 56.53578 85.37410 2526 ft 181 kts 162°
2026-05-07 20:39 56.52388 85.37615 2480 ft 169 kts 198°
2026-05-07 20:40 56.51379 85.36655 2411 ft 163 kts 215°
2026-05-07 20:40 56.50442 85.35526 2338 ft 161 kts 215°
2026-05-07 20:40 56.49513 85.34411 2332 ft 160 kts 214°
2026-05-07 20:40 56.48641 85.33369 2321 ft 143 kts 215°
2026-05-07 20:41 56.47830 85.32398 2318 ft 137 kts 214°
2026-05-07 20:41 56.47038 85.31451 2291 ft 136 kts 215°
2026-05-07 20:41 56.46254 85.30514 2180 ft 135 kts 215°
2026-05-07 20:41 56.45473 85.29581 2044 ft 134 kts 214°
2026-05-07 20:42 56.44692 85.28647 1889 ft 135 kts 213°
2026-05-07 20:42 56.43911 85.27716 1718 ft 134 kts 213°
2026-05-07 20:42 56.43133 85.26792 1567 ft 134 kts 213°
2026-05-07 20:42 56.42353 85.25880 1418 ft 134 kts 212°
2026-05-07 20:43 56.41573 85.24967 1205 ft 133 kts 212°
2026-05-07 20:43 56.40800 85.24054 1054 ft 133 kts 214°
2026-05-07 20:43 56.40046 85.23119 848 ft 133 kts 213°
2026-05-07 20:43 56.39264 85.22177 689 ft 134 kts 213°
2026-05-07 20:44 56.38502 85.21278 596 ft 120 kts 214°
2026-05-07 20:44 56.37960 85.20631 594 ft 70 kts 213°
2026-05-07 20:44 56.37794 85.20439 595 ft 1 kts 215°
2026-05-07 20:44 56.37775 85.20390 595 ft 10 kts 256°
2026-05-07 20:45 56.37805 85.20271 595 ft 10 kts 305°
2026-05-07 20:45 56.37854 85.20149 596 ft 13 kts 312°
2026-05-07 20:45 56.37926 85.20171 596 ft 12 kts 37°
2026-05-07 20:45 56.38019 85.20289 596 ft 18 kts 34°
2026-05-07 20:46 56.38123 85.20411 596 ft 18 kts 34°
2026-05-07 20:46 56.38226 85.20538 596 ft 18 kts 34°
2026-05-07 20:46 56.38332 85.20660 596 ft 18 kts 32°
2026-05-07 20:46 56.38438 85.20785 596 ft 18 kts 32°
2026-05-07 20:47 56.38544 85.20913 596 ft 18 kts 32°
2026-05-07 20:47 56.38634 85.21019 596 ft 14 kts 34°
2026-05-07 20:47 56.38710 85.21112 596 ft 12 kts 33°
2026-05-07 20:47 56.38756 85.21166 596 ft 11 kts 32°
2026-05-07 20:48 56.38819 85.21240 596 ft 10 kts 34°
2026-05-07 20:48 56.38873 85.21302 596 ft 6 kts 25°
2026-05-07 20:48 56.38903 85.21279 596 ft 4 kts 315°
2026-05-07 20:48 56.38922 85.21228 596 ft 3 kts 303°
2026-05-07 20:49 56.38923 85.21225 596 ft 0 kts 303°